Weather History for Shirley, NY

Change the Weather History Date:

Saturday, February 15, 2014

  Actual Average (KISP) Record (KISP)
Temperature  
Mean Temperature 30 °F 33 °F  
Max Temperature 37 °F 40 °F 57 °F (1984)
Min Temperature 24 °F 25 °F 3 °F (1994)
Degree Days  
Heating Degree Days 34 32  
Month to date heating degree days 499  
Since 1 July heating degree days 3491  
Cooling Degree Days 0 0  
Month to date cooling degree days 0  
Year to date cooling degree days 0  
Moisture  
Dew Point 26 °F    
Average Humidity 82    
Maximum Humidity 92    
Minimum Humidity 59    
Precipitation  
Precipitation 0.01 in 0.11 in 0.95 in (1992)
Month to date precipitation 1.63  
Year to date precipitation 5.27  
Snow  
Snow 0.00 in 0.20 in 0.20 in (2010)
Month to date snowfall 3.6  
Since 1 July snowfall 16.2  
Snow Depth -    
Sea Level Pressure  
Sea Level Pressure 29.64 in    
Wind  
Wind Speed 7 mph (North)    
Max Wind Speed 23 mph    
Max Gust Speed 36 mph    
Visibility 5 miles    
Events Fog , Snow    
T = Trace of Precipitation, MM = Missing Value Source: NWS Daily Summary

Daily Weather History Graph

Daily Weather History Graph

Search for Another Location

Airport:

Trip Planner

Search our weather history database for the weather conditions in past years. The results will help you decide how hot, cold, wet, or windy it might be!

Date:

Astronomy

Feb. 15, 2014 Rise Set
Actual Time 6:45 AM EST 5:26 PM EST
Civil Twilight 6:17 AM EST 5:54 PM EST
Nautical Twilight 5:45 AM EST 6:26 PM EST
Astronomical Twilight 5:13 AM EST 6:58 PM EST
Moon 6:24 PM EST (2/15) 6:42 AM EST (2/15)
Length of Visible Light 11h 36m
Length of Day
10h 40m
Full, 100% of the Moon is Illuminated
Feb 15
Full
Feb 22
Last Quarter
Mar 1
New
Mar 8
First Quarter
Mar 16
Full

Hourly Weather History & Observations

Time (EST) Temp. Windchill Dew Point Humidity Pressure Visibility Wind Dir Wind Speed Gust Speed Precip Events Conditions
12:56 AM 24.1 °F - 19.0 °F 81% 29.81 in 9.0 mi Calm Calm - N/A   Clear
1:56 AM 25.0 °F - 19.9 °F 81% 29.81 in 8.0 mi Calm Calm - N/A   Clear
2:56 AM 25.0 °F - 21.9 °F 88% 29.82 in 5.0 mi Calm Calm - N/A   Clear
3:56 AM 25.0 °F - 23.0 °F 92% 29.81 in 4.0 mi Calm Calm - N/A   Clear
4:56 AM 25.0 °F - 21.9 °F 88% 29.80 in 4.0 mi Calm Calm - N/A   Clear
5:56 AM 26.1 °F - 23.0 °F 88% 29.80 in 5.0 mi Calm Calm - N/A   Clear
6:56 AM 28.9 °F - 25.0 °F 85% 29.79 in 7.0 mi Calm Calm - N/A   Mostly Cloudy
7:56 AM 32.0 °F - 26.1 °F 79% 29.79 in 9.0 mi Calm Calm - N/A   Mostly Cloudy
8:56 AM 35.1 °F - 25.0 °F 67% 29.81 in 10.0 mi Calm Calm - N/A   Overcast
9:56 AM 36.0 °F 32.1 °F 23.0 °F 59% 29.76 in 10.0 mi Variable 4.6 mph - N/A   Overcast
10:56 AM 37.9 °F 35.5 °F 26.1 °F 62% 29.74 in 10.0 mi Variable 3.5 mph - N/A   Overcast
11:56 AM 37.9 °F 32.7 °F 28.0 °F 68% 29.69 in 10.0 mi Variable 6.9 mph - N/A   Overcast
12:56 PM 35.1 °F 27.9 °F 28.9 °F 78% 29.62 in 4.0 mi NE 9.2 mph 19.6 mph 0.00 in Snow Light Snow
1:12 PM 34.0 °F 27.2 °F 28.9 °F 82% 29.61 in 3.0 mi NNE 8.1 mph 19.6 mph 0.01 in Snow Light Snow
1:25 PM 34.0 °F 28.0 °F 28.9 °F 82% 29.60 in 5.0 mi Variable 6.9 mph 17.3 mph 0.01 in   Overcast
1:56 PM 34.0 °F 26.0 °F 28.9 °F 82% 29.58 in 7.0 mi NNE 10.4 mph 20.7 mph 0.01 in   Overcast
2:45 PM 34.0 °F 24.2 °F 28.0 °F 79% 29.57 in 8.0 mi NNE 15.0 mph 24.2 mph N/A   Overcast
2:56 PM 33.1 °F 23.9 °F 28.0 °F 82% 29.57 in 8.0 mi NNE 12.7 mph 21.9 mph N/A   Overcast
3:35 PM 33.1 °F 25.5 °F 28.0 °F 82% 29.58 in 7.0 mi North 9.2 mph 26.5 mph N/A   Overcast
3:56 PM 33.1 °F 24.4 °F 28.0 °F 82% 29.57 in 6.0 mi North 11.5 mph 25.3 mph N/A   Haze
4:18 PM 32.0 °F 20.8 °F 28.0 °F 85% 29.53 in 1.8 mi North 17.3 mph 26.5 mph 0.00 in Snow Light Snow
4:40 PM 32.0 °F 21.2 °F 28.9 °F 88% 29.53 in 0.8 mi North 16.1 mph 21.9 mph 0.00 in Snow Light Snow
4:56 PM 32.0 °F 20.8 °F 28.9 °F 88% 29.53 in 1.0 mi North 17.3 mph 23.0 mph 0.00 in Snow Light Snow
5:56 PM 30.9 °F 19.1 °F 28.0 °F 89% 29.57 in 1.2 mi North 18.4 mph 25.3 mph 0.00 in Snow Light Snow
6:16 PM 30.9 °F 19.8 °F 28.0 °F 89% 29.56 in 0.8 mi North 16.1 mph 28.8 mph 0.00 in Snow Light Snow
6:56 PM 30.9 °F 18.7 °F 28.9 °F 92% 29.56 in 0.5 mi North 19.6 mph 27.6 mph 0.00 in Fog , Snow Snow
7:56 PM 30.9 °F 18.1 °F 28.9 °F 92% 29.55 in 1.0 mi North 21.9 mph 33.4 mph 0.00 in Snow Light Snow
8:16 PM 30.9 °F 18.4 °F 28.9 °F 92% 29.56 in 2.0 mi North 20.7 mph 31.1 mph 0.00 in Snow Light Snow
8:25 PM 30.9 °F 17.8 °F 28.9 °F 92% 29.56 in 3.0 mi North 23.0 mph 35.7 mph 0.00 in Snow Light Snow
8:36 PM 32.0 °F 20.1 °F 28.9 °F 88% 29.56 in 3.0 mi NNW 19.6 mph 28.8 mph 0.00 in Snow Light Snow
8:45 PM 32.0 °F 22.1 °F 28.9 °F 88% 29.56 in 2.0 mi North 13.8 mph 25.3 mph 0.00 in Snow Light Snow
8:56 PM 32.0 °F 21.2 °F 28.9 °F 88% 29.57 in 2.0 mi NNW 16.1 mph 24.2 mph 0.00 in Snow Light Snow
9:00 PM 32.0 °F 21.6 °F 28.9 °F 88% 29.57 in 3.0 mi NNW 15.0 mph 24.2 mph 0.00 in Snow Light Snow
9:10 PM 32.0 °F 20.1 °F 28.9 °F 88% 29.57 in 5.0 mi NNW 19.6 mph 29.9 mph 0.00 in Snow Light Snow
9:21 PM 32.0 °F 20.5 °F 28.0 °F 85% 29.57 in 4.0 mi NNW 18.4 mph 32.2 mph 0.00 in Snow Light Snow
9:56 PM 32.0 °F 19.2 °F 26.1 °F 79% 29.59 in 5.0 mi NNW 23.0 mph 28.8 mph 0.00 in Snow Light Snow
10:56 PM 30.9 °F 18.4 °F 21.9 °F 69% 29.61 in 6.0 mi NW 20.7 mph 34.5 mph 0.00 in   Overcast
11:56 PM 30.0 °F 17.2 °F 18.0 °F 61% 29.65 in 8.0 mi NW 20.7 mph 31.1 mph 0.00 in   Mostly Cloudy